COSMOS 252 DEB, 3788

Orbit data source: Space-Track

COSMOS 252 DEB, 3788 is space debris in LEO originally from a launch on Fri, 01 Nov 1968 UTC launched from the Tyuratam Missile And Space Complex (TTMTR). Debris objects in space refer to the collection of defunct objects orbiting the Earth. Examples of debris include non-operational satellites, rocket bodies, and fragments generated from explosions, collisions, or faulty payload assembly.

Loading next visibility...
Identifier
3788, 1968-097BA
Orbit
LEO
Country
Flag of CISCIS
Related business
Manufacturer
Unknown
Mission
Spacecraft
Bus & Motor
Unknown
Mass
Unknown
Launch date (UTC)
1968-11-01 (57 years ago)
Launch vehicle
Unknown
Launch site
Tyuratam Missile And Space Complex (TTMTR)
Object type
Payload
Rocket body
Debris
Shape & HBR
Unknown shape, 0.1 m
Radar Cross Section
Small (<0.1 m²)

Expand to show TLE details & history
Last TLE update: 17 hours ago

TLE from 17 hours ago
0 COSMOS 252 DEB
1 03788U 68097BA  25287.90816829  .00000009  00000-0  65722-3 0  9997
2 03788  61.8769 252.1153 0567769 320.8794  63.7627 11.88436500471275
Epoch: 2025-10-14T21:47Z
TLE epoch observation values (Epoch: 2025-10-14T21:47:45.740Z)
Latitude
26.77826°
Longitude
-82.94556°
Altitude
1,553.198 km
Speed
7.172 km/s
True Right ascension
17h 50m 44s
True Declination
26° 39' 15"
Sunlit
Object was in daylight at epoch
Visualization orbit readout
Latitude
Unknown
Longitude
Unknown
Altitude
Unknown
Speed
Unknown
Apparent Right ascension
Unknown
Apparent Declination
Unknown
Sunlit
N/A
Visualization observer readout
Local Sidereal Time
09:36:41
Azimuth
Unknown
Elevation
Unknown
Doppler factor
Unknown
Orbital elements
Apogee altitude
2,192.624 km
Perigee altitude
1,271.671 km
Semi-major axis
8,110.284 km
Eccentricity
0.05678
Inclination
61.8769°
RAAN
252.1153°
Arg. of periapsis
320.8794°
True anomaly
69.77621°
Mean anomaly
63.7627°
Eccentric anomaly
66.75163°
Mean motion
2.97159 °/min
Orbital period
121.15 mins
BSTAR
0.00065722
Loading maneuver chart data...
Computing Atmospheric mass density...

Documentation

Showing up to 5 results
|